Weather in Lyubov

Russia / Zabaykalsky Krai     49°38′27″N   112°09′08″E
temp.,
°C
wind,
m/s
gust,
m/s
humid.,
%
clouds,
%
prec.,
mm/h
press.,
hPa
HPBL,
m
18 august, thu
thu1800:00+9nnw3365100 0.0 100822
03:00+8nw2268100 0.0 100814
06:00+8nnw1168100 0.0 100811
09:00+11wsw1166100 0.0 1008139
12:00+13sw1261100 0.0 1006557
15:00+13ssw5467100 0.1 1005860
18:00+13sw446995 0.4 1005763
21:00+8sw22915 0.6 100615
19 august, fri
fri1900:00+7wnw22925 0.0 100614
03:00+6wnw3291100 0.0 100731
06:00+7wnw2182100 0.0 100613
09:00+9ssw1182100 0.5 1006142
12:00+8nnw498178 2.1 1008893
15:00+14nw810515 2.1 10071788
18:00+15nw69445 0.0 10062304
21:00+8w33635 0.0 100822
20 august, sat
sat2000:00+7nw32655 0.0 100815
03:00+5nw2267100 0.0 100914
06:00+7wsw1157100 0.0 100710
09:00+10w1158100 0.0 1006174
12:00+14e1155100 0.0 1004757
15:00+16ese2254100 0.0 10021337
18:00+13sw3373100 1.0 100397
21:00+9wsw228338 1.4 100411
21 august, sun
sun2100:00+7nw3284100 0.0 100416
03:00+6nw227847 0.0 100515
06:00+6nw337941 0.0 100628
09:00+10nw387259 0.0 1007554
12:00+13nw675364 0.0 10071201
15:00+14nnw7948100 0.0 10071726
18:00+12nw89555 0.0 10091245
21:00+7nw510775 0.0 1011318
22 august, mon
mon2200:00+4wnw399073 0.0 1014219
03:00+6nw612756 0.0 1013725
06:00+6nw8137042 0.0 10141110
09:00+7nw9136529 0.0 10141036
12:00+11nw78525 0.0 10131169
15:00+13nw67465 0.0 10131616
18:00+14wnw674615 0.0 10121707
21:00+7nw45720 0.0 101584